[Iaude] MPEC J01: 2024 HF2 [a=1.16,e=0.27,i=9.6,H=26.4]
    mpec at cfa.harvard.edu 
    mpec at cfa.harvard.edu
       
    Tue Apr 30 21:09:46 EDT 2024
    
    
  
M.P.E.C. 2024-J01                                   Issued 2024 May 1, 01:08 UT
     The Minor Planet Electronic Circulars contain information on unusual
         minor planets, routine data on comets and natural satellites,
         and occasional editorial announcements.  They are published
    on behalf of Division F of the International Astronomical Union by the
          Minor Planet Center, Smithsonian Astrophysical Observatory,
                          Cambridge, MA 02138, U.S.A.
			  
             Prepared using the Tamkin Foundation Computer Network
                              MPC at CFA.HARVARD.EDU
            URL https://www.minorplanetcenter.net/    ISSN 1523-6714
                                    2024 HF2                                    
Observations:
     K24H02F* C2024 04 29.84080 13 24 11.65 +10 54 01.8          19.5 GVEJ001K88
     K24H02F  C2024 04 29.84302 13 24 11.53 +10 52 39.8          19.3 GVEJ001K88
     K24H02F  C2024 04 29.84475 13 24 11.54 +10 51 34.9          19.6 GVEJ001K88
     K24H02F  C2024 04 29.84549 13 24 11.55 +10 51 07.4          19.4 GVEJ001K88
     K24H02F  C2024 04 29.84672 13 24 11.46 +10 50 21.2          19.6 GVEJ001K88
     K24H02F KC2024 04 29.85942913 24 10.91 +10 42 22.0          19.4 RoEJ001K88
     K24H02F KC2024 04 29.86162013 24 10.84 +10 41 00.2          19.5 RoEJ001K88
     K24H02F KC2024 04 29.86381413 24 10.76 +10 39 37.8          19.4 RoEJ001K88
     K24H02F KC2024 04 29.88111 13 24 10.26 +10 28 43.2          19.3 GXEJ001G02
     K24H02F KC2024 04 29.88993 13 24 09.02 +10 23 20.6          19.5 VZEJ001M38
     K24H02F KC2024 04 29.89210 13 24 09.75 +10 21 51.8          19.4 GXEJ001G02
     K24H02F KC2024 04 29.90290 13 24 08.53 +10 15 15.4          19.2 VZEJ001M38
     K24H02F KC2024 04 29.91199813 24 10.41 +10 09 23.0          18.5 GVEJ001G34
     K24H02F KC2024 04 29.91597613 24 10.28 +10 06 55.1          19.4 GVEJ001G34
     K24H02F KC2024 04 29.92672213 24 09.83 +10 00 15.8          18.6 GVEJ001G34
     K24H02F KC2024 04 29.93069913 24 09.69 +09 57 49.2          19.0 GVEJ001G34
     K24H02F KB2024 04 29.94109 13 24 05.51 +09 51 46.8          19.3 GXEJ001M45
     K24H02F KB2024 04 29.94567 13 24 05.33 +09 48 57.9          19.5 GXEJ001M45
     K24H02F KB2024 04 29.95026 13 24 05.18 +09 46 08.3          19.3 GXEJ001M45
     K24H02F KB2024 04 29.96167413 24 12.39 +09 39 23.9          19.1 GXEJ001958
     K24H02F KB2024 04 29.96443813 24 12.29 +09 37 43.3          19.1 GXEJ001958
     K24H02F KB2024 04 29.96720713 24 12.20 +09 36 02.2                XEJ001958
     K24H02F KC2024 04 30.01578 13 24 06.41 +09 06 09.7                qEJ001C75
     K24H02F KC2024 04 30.01870 13 24 06.30 +09 04 23.1                qEJ001C75
     K24H02F KB2024 04 30.03916013 24 22.623+08 58 40.02         19.2 VZEJ001Y05
     K24H02F KB2024 04 30.04314213 24 22.300+08 56 16.54         19.3 VZEJ001Y05
     K24H02F KB2024 04 30.04711313 24 21.995+08 53 53.67         19.5 VZEJ001Y05
     K24H02F KB2024 04 30.13396 13 24 37.29 +07 56 59.1          19.4 VZEJ001V24
     K24H02F KB2024 04 30.13682 13 24 37.19 +07 55 18.2          20.5 VZEJ001V24
     K24H02F KB2024 04 30.13961 13 24 37.11 +07 53 40.3          19.5 VZEJ001V24
     K24H02F KC2024 04 30.16201613 24 34.67 +07 40 21.9          19.5 GXEJ001858
     K24H02F KC2024 04 30.16613413 24 34.46 +07 37 58.5          19.6 GXEJ001858
     K24H02F KC2024 04 30.17021313 24 34.24 +07 35 36.5          19.8 GXEJ001858
     K24H02F mC2024 04 30.17122513 24 35.881+07 35 14.78         19.59GVEJ001I52
     K24H02F mC2024 04 30.17227813 24 35.809+07 34 37.60         19.61GVEJ001I52
     K24H02F mC2024 04 30.17333013 24 35.759+07 34 01.67         19.36GVEJ001I52
     K24H02F mC2024 04 30.17350313 24 35.748+07 33 55.30         19.78GVEJ001I52
     K24H02F KB2024 04 30.82972 13 25 04.01 +01 41 29.6          19.7 GXEJ001M45
     K24H02F KB2024 04 30.83430 13 25 03.80 +01 39 14.5          19.4 GXEJ001M45
     K24H02F KC2024 04 30.90372213 25 04.728+01 05 00.17         20.3 GVEJ001G01
     K24H02F KC2024 04 30.93089513 25 03.756+00 51 55.37         19.5 GVEJ001G01
     K24H02F KC2024 04 30.94930113 25 03.221+00 43 11.53         20.1 GVEJ001G01
     K24H02F KC2024 04 30.96046813 25 02.861+00 37 51.10         20.1 GVEJ001G01
Observer details:
858 Tebbutt Observatory, Edgewood.  Observer F. B. Zoltowski.  0.51-m f/8.1
    Schmidt-Cassegrain + CCD.
958 Observatoire de Dax.  Observer P. Dupouy.  0.50-m f/4.5 Reflector + CMO.
C75 Whitestar Observatory, Borgobello.  Observer T. Gregor.  Measurers V.
    Gonano, T. Gregor.  0.35-m f/5.7 Schmidt-Cassegrain + CCD.
G01 Universitaetssternwarte Oldenburg.  Observers T. Hoffmann, D. Gauk.
    0.40-m f/5.8 Ritchey-Chretien + CCD.
G02 KYSUCE Observatory, Kysucke Nove Mesto.  Observer M. Urbanik.  0.40-m
    f/6.8 Corrected Dall-Kirkham + CCD.
G34 Oberfrauendorf.  Observer T. Felber.  0.35-m f/6.3 Schmidt-Cassegrain +
    CMOS.
I52 Steward Observatory, Mt. Lemmon Station.  Observers V. F. Carvajal, G. J.
    Leonard.  Measurers T. Beuden, V. F. Carvajal, D. Fay, J. B. Fazekas, D.
    C. Fuls, A. R. Gibbs, A. D. Grauer, H. Groeller, J. K. Hogan, R. A.
    Kowalski, S. M. Larson, G. J. Leonard, D. Rankin, R. L. Seaman, F. C.
    Shelly, K. W. Wierzchos.  1.0-m prime focus + CCD.
K88 GINOP-KHK, Piszkesteto.  Observer K. Sarneczky.  0.60-m Schmidt + CCD.
M38 Harsona Observatory, Nyiregyhaza.  Observer T. Elek.  0.20-m f/3 reflector
    + CCD.
M45 Starhopper Observatory, Sfantu Gheorghe.  Observer F. Ursache.  0.41-m
    f/7.5 reflector + CMO.
V24 Sonoran Desert Skies Observatory, Pearce.  Observer A. Helms.  0.32-m
    f/6.7 reflector + CMO.
Y05 SONEAR Wykrota-CEAMIG, Serra da Piedade.  Observer C. Jacques.  0.45-m
    f/2.9 reflector + CMO.
Orbital elements:
2024 HF2                                                 Earth MOID = 0.0179 AU
Epoch 2024 Mar. 31.0 TT = JDT 2460400.5                 Veres                   
M  27.43908              (2000.0)            P               Q                  
n   0.78833685     Peri.   97.29561     -0.74460910     -0.65817299             
a   1.1605437      Node    41.63422     +0.52713493     -0.68201165             
e   0.2708252      Incl.    9.63535     +0.40949487     -0.31885487             
P   1.25           H   26.45          G   0.15           U   7                  
Residuals in seconds of arc
240429 K88  0.7-  1.3-    240429 G34  0.1+  0.1-    240430 858  0.1-  0.2-
240429 K88  1.2-  0.4+    240429 M45  0.5-  0.6-    240430 858  0.1-  0.2-
240429 K88  0.0   0.6+    240429 M45  0.4-  0.1-    240430 858  0.1-  0.2-
240429 K88  0.6+  1.0+    240429 M45  0.1-  0.1-    240430 I52  0.1+  0.3+
240429 K88  0.0   1.1+    240429 958  0.4-  0.2+    240430 I52  0.1-  0.3-
240429 K88  0.7-  0.3-    240429 958  0.3+  1.1+    240430 I52  0.0   0.3+
240429 K88  0.3-  0.2+    240429 958  1.1+  1.6+    240430 I52  0.0   0.0
240429 K88  0.2-  0.2+    240430 C75  0.9+  0.1+    240430 M45  0.9+  0.4+
240429 G02  0.1-  1.0+    240430 C75  0.4+  0.3-    240430 M45  0.8+  0.2+
240429 M38  0.5-  1.1+    240430 Y05  0.2-  0.1-    240430 G01  0.8-  0.3-
240429 G02  0.9-  0.2+    240430 Y05  0.0   0.2-    240430 G01  1.4-  2.0-
240429 M38  0.7+  0.2-    240430 Y05  0.4+  0.2-    240430 G01  0.1-  1.6+
240429 G34  0.1+  0.2+    240430 V24  0.1-  0.5+    240430 G01  0.0   0.1-
240429 G34  0.5+  0.0     240430 V24  0.1+  0.3-
240429 G34  0.1-  0.8-    240430 V24  0.5+  0.5-
Ephemeris:
2024 HF2                 a,e,i = 1.16, 0.27, 10                  q = 0.8462
Date    TT    R. A. (2000) Decl.     Delta      r    Elong.  Phase     V
2024 04 01    01 31 03.5 +51 10 55   0.1386  0.9119    47.8   125.8    27.3
...
2024 04 16    01 36 06.2 +64 09 15   0.06187 0.9685    54.1   123.0    25.4
...
2024 04 24    12 27 32.4 +84 47 30   0.02643 1.0023    81.9    96.6    22.0
...
2024 04 30    13 24 15.3 +09 19 56   0.02431 1.0286   151.0    28.4    19.7
2024 05 01    13 25 07.3 +00 23 46   0.02761 1.0330   157.1    22.3    19.8
2024 05 02    13 25 49.1 -06 30 29   0.03145 1.0375   160.4    19.0    20.0
...
2024 05 08    13 28 44.8 -26 07 09   0.05952 1.0643   156.9    21.8    21.5
...
2024 05 16    13 32 54.1 -33 53 16   0.1018  1.1002   149.7    27.6    22.9
...
2024 05 31    13 45 13.8 -37 51 05   0.1886  1.1662   140.9    33.3    24.6
                      (Last issue was M.P.E.C. 2024-H108)                       
M. P. C. Staff               (C) Copyright 2024 MPC           M.P.E.C. 2024-J01
    
    
More information about the Iaude
mailing list